Weather History for KDDH - March, 2014

Change the Weather History Date:

Sunday, March 16, 2014

  Actual Average Record
Temperature  
Mean Temperature 20 °F 33 °F  
Max Temperature 27 °F 44 °F 61 °F (2003)
Min Temperature 13 °F 22 °F 13 °F (2014)
Degree Days  
Heating Degree Days 45 32  
Month to date heating degree days 685 551  
Since 1 July heating degree days 5933 5802  
Cooling Degree Days 0 0  
Month to date cooling degree days 0 0  
Year to date cooling degree days 0 0  
Moisture  
Dew Point 6 °F    
Average Humidity 56    
Maximum Humidity 77    
Minimum Humidity 35    
Precipitation  
Precipitation T in 0.11 in 0.60 in (2007)
Month to date precipitation 0.86 1.49  
Year to date precipitation 6.72 6.48  
Sea Level Pressure  
Sea Level Pressure 30.12 in    
Wind  
Wind Speed 10 mph (WNW)    
Max Wind Speed 20 mph    
Max Gust Speed 28 mph    
Visibility 9 miles    
Events Snow    
T = Trace of Precipitation, MM = Missing Value Source: NWS Daily Summary

Daily Weather History Graph

Daily Weather History Graph

Search for Another Location

Airport or City:

Trip Planner

Search our weather history database for the weather conditions in past years. The results will help you decide how hot, cold, wet, or windy it might be!

Date:

Astronomy

Mar. 16, 2014 Rise Set
Actual Time 7:03 AM EDT 7:00 PM EDT
Civil Twilight 6:35 AM EDT 7:28 PM EDT
Nautical Twilight 6:02 AM EDT 8:01 PM EDT
Astronomical Twilight 5:28 AM EDT 8:35 PM EDT
Moon 7:16 PM EDT (3/16) 6:44 AM EDT (3/16)
Length of Visible Light 12h 53m
Length of Day
11h 57m
Full, 100% of the Moon is Illuminated
Mar 16
Full
Mar 16
Full
Mar 23
Last Quarter
Mar 30
New
Apr 7
First Quarter

Hourly Weather History & Observations

Time (EDT) Temp. Windchill Dew Point Humidity Pressure Visibility Wind Dir Wind Speed Gust Speed Precip Events Conditions
12:54 AM 27.0 °F 15.2 °F 10.9 °F 51% 29.98 in 10.0 mi West 15.0 mph 29.9 mph N/A   Clear
1:54 AM 26.1 °F 13.6 °F 12.0 °F 55% 29.99 in 10.0 mi West 16.1 mph 24.2 mph N/A   Overcast
2:54 AM 25.0 °F 14.8 °F 12.0 °F 58% 30.01 in 10.0 mi West 10.4 mph 18.4 mph N/A   Overcast
3:54 AM 24.1 °F 13.7 °F 10.9 °F 57% 30.02 in 10.0 mi West 10.4 mph - N/A   Mostly Cloudy
4:54 AM 21.9 °F 11.7 °F 10.9 °F 63% 30.04 in 10.0 mi West 9.2 mph 17.3 mph N/A   Overcast
5:54 AM 21.0 °F 10.6 °F 10.9 °F 65% 30.06 in 9.0 mi West 9.2 mph 21.9 mph 0.00 in Snow Light Snow
6:26 AM 21.0 °F 8.1 °F 12.0 °F 68% 30.04 in 5.0 mi WNW 13.8 mph - 0.00 in Snow Light Snow
6:35 AM 21.0 °F 9.3 °F 12.9 °F 71% 30.05 in 1.8 mi WNW 11.5 mph 20.7 mph 0.00 in Snow Light Snow
6:54 AM 19.9 °F 7.9 °F 14.0 °F 78% 30.09 in 1.2 mi West 11.5 mph - 0.00 in Snow Light Snow
7:04 AM 19.9 °F 7.9 °F 12.9 °F 74% 30.06 in 3.0 mi West 11.5 mph - 0.00 in Snow Light Snow
7:24 AM 19.9 °F 8.6 °F 9.0 °F 62% 30.07 in 10.0 mi NW 10.4 mph 18.4 mph 0.00 in   Mostly Cloudy
7:54 AM 19.9 °F 9.3 °F 6.1 °F 55% 30.12 in 10.0 mi NNW 9.2 mph - 0.00 in   Partly Cloudy
8:54 AM 19.0 °F 7.5 °F 6.1 °F 57% 30.14 in 10.0 mi NNW 10.4 mph - N/A   Mostly Cloudy
9:54 AM 19.9 °F 10.1 °F 3.9 °F 50% 30.17 in 10.0 mi NW 8.1 mph - N/A   Overcast
10:54 AM 21.0 °F 7.6 °F 1.0 °F 42% 30.18 in 10.0 mi WNW 15.0 mph 24.2 mph N/A   Mostly Cloudy
11:54 AM 21.9 °F 9.2 °F 3.0 °F 44% 30.17 in 10.0 mi West 13.8 mph 24.2 mph N/A   Partly Cloudy
12:54 PM 23.0 °F 10.6 °F 1.9 °F 40% 30.18 in 10.0 mi NW 13.8 mph 23.0 mph N/A   Partly Cloudy
1:54 PM 24.1 °F 13.7 °F 1.0 °F 37% 30.17 in 10.0 mi WNW 10.4 mph 21.9 mph N/A   Partly Cloudy
2:54 PM 24.1 °F 12.0 °F 1.9 °F 38% 30.16 in 10.0 mi West 13.8 mph 23.0 mph N/A   Partly Cloudy
3:54 PM 25.0 °F 14.8 °F 1.0 °F 36% 30.17 in 10.0 mi WNW 10.4 mph 24.2 mph N/A   Clear
4:54 PM 24.1 °F 13.1 °F -0.0 °F 35% 30.17 in 10.0 mi WNW 11.5 mph 19.6 mph N/A   Clear
5:54 PM 23.0 °F 9.6 °F 3.0 °F 42% 30.16 in 10.0 mi West 16.1 mph 21.9 mph N/A   Clear
6:54 PM 21.0 °F 11.4 °F 1.9 °F 44% 30.17 in 10.0 mi WSW 8.1 mph - N/A   Clear
7:54 PM 19.0 °F 10.0 °F 1.9 °F 47% 30.20 in 10.0 mi West 6.9 mph - N/A   Clear
8:54 PM 18.0 °F 7.7 °F 1.9 °F 50% 30.22 in 10.0 mi West 8.1 mph - N/A   Clear
9:54 PM 16.0 °F 5.3 °F 1.9 °F 54% 30.23 in 10.0 mi WSW 8.1 mph - N/A   Clear
10:54 PM 15.1 °F 6.4 °F 1.9 °F 56% 30.24 in 10.0 mi WNW 5.8 mph - N/A   Clear
11:54 PM 14.0 °F 5.1 °F -6.0 °F 41% 30.20 in 10.0 mi NNW 5.8 mph - N/A   Clear